SL-16 R/B (31793 NORAD) Tracking and Keplerian Element Data

This shows tracking and keplerian element data for the satellite.

Feedback or suggestion? Click here.




ElementValue
Catalog31793
NameSL-16 R/B
Epoch Orbit57023
Epoch Day195.82308122
Epoch Year2018
RAAN284.4114
Inclination70.9753
Eccentricity0.0002461
Argument of Perigee265.637
Mean Anonmoly233.6304
Mean Motion14.14397321
Decay Rate1.11E-06
L11 31793U 07029B 18195.82308122 .00000111 00000-0 82721-4 0 9998
L22 31793 70.9753 284.4114 0002461 265.6370 233.6304 14.14397321570235

Live tracking and technical data element details for SL-16 R/B (NORAD 31793). SL-16 R/B can be tracked NOW for your location showing map with azimuth and elevation plus other details from your city location.

Track the satellite on the map from your city or location and see movement details for azimuth, elevation, latitude, longitude, range, height, and movement on the map or in text.







IsCatalogInMostPopularTable: catalog: 31793, numindb: 23
Update: records affected: 1



GetName: 31793 SL-16 R/B

Hit Count: updated at: Sun, 15 Jul 2018 23:18:21 GMT